Regional Weather Roundup
Issued by NWS

Home | Current Version | Previous Version | Text Only | Print | Product List | Glossary On
Versions: 1 2 3 4 5 6 7 8 9 10 11 12 13 14 15 16 17 18 19 20 21 22 23 24 25 26 27 28 29 30 31 32 33 34 35 36 37 38 39 40 41 42 43 44 45 46 47 48 49 50
000
ASUS44 KOUN 031010
RWROK

WEATHER ROUNDUP FOR OKLAHOMA
NATIONAL WEATHER SERVICE NORMAN OK
500 AM CDT TUE MAY 03 2016

NOTE: "FAIR" INDICATES FEW OR NO CLOUDS BELOW 12,000 FEET WITH NO
      SIGNIFICANT WEATHER AND/OR OBSTRUCTIONS TO VISIBILITY.

OKZ001>007-009>012-014-015-017-031100-
NORTHWEST OKLAHOMA AND THE PANHANDLE

CITY           SKY/WX    TMP DP  RH WIND       PRES   REMARKS
GAGE           CLEAR     37  34  89 SW5       30.08S WCI  33
GUYMON         PTCLDY    43  39  86 SW5       30.07F
ENID/WOODRING  CLEAR     39  37  93 CALM      30.07S
$$

OKZ016-021>023-033>039-044-045-031100-
SOUTHWEST OKLAHOMA

CITY           SKY/WX    TMP DP  RH WIND       PRES   REMARKS
LAWTON/REGL    CLEAR     43  41  93 CALM      30.09S
LAWTON/FT SILL CLEAR     46  42  87 CALM      30.08S
FREDERICK      CLEAR     49  45  86 S5        30.06F
CLINTON        CLEAR     43  39  86 SW7       30.10S
HOBART         CLEAR     45  41  86 CALM      30.10R
ALTUS AFB      CLEAR     42  38  86 NE2       30.09R
$$

OKZ018>020-024>031-031100-
CENTRAL OKLAHOMA

CITY           SKY/WX    TMP DP  RH WIND       PRES   REMARKS
OKLAHOMA CITY  PTCLDY    43  41  93 SW3       30.08R
OKC/WILEY POST CLEAR     43  40  89 SW3       30.09R
OKC/TINKER AFB CLEAR     49  41  73 W3        30.07R
STILLWATER     CLEAR     39  37  92 SW3       30.08R FOG
GUTHRIE        CLEAR     42  40  92 SW3       30.08S
$$

OKZ008-013-054>072-031100-
NORTHEAST OKLAHOMA

CITY           SKY/WX    TMP DP  RH WIND       PRES   REMARKS
TULSA          CLEAR     44  43  96 CALM      30.07R
TULSA/JONES    CLEAR     43  42  97 CALM      30.08R FOG
PONCA CITY     CLEAR     39  37  92 CALM      30.08R
BARTLESVILLE   PTCLDY    38  37  97 CALM      30.09R FOG
MUSKOGEE       FOG       43  41  93 CALM      30.09R VSB 1/2
$$

OKZ032-040>043-046>053-073>077-031100-
SOUTH CENTRAL/SOUTHEAST OKLAHOMA

CITY           SKY/WX    TMP DP  RH WIND       PRES   REMARKS
ARDMORE/DWNTWN   N/A     43  41  93 CALM      30.09S
MCALESTER      PTCLDY    42  40  92 CALM      30.08S
$$




USA.gov is the U.S. government's official web portal to all federal, state and local government web resources and services.